Location: Hengforden
(52.3167°N, 6.1333°E)
Time: 16:35:56
(UTC+00:00)

Cosmos 1943 - Pass Details

Date: 14 June 2025
Orbit: 830 x 849 km, 71.0° (Epoch: 19 July)

Event Time Altitude Azimuth Distance (km) Brightness Sun altitude
Rises 21:49:51 0° 329° (NNW) 3,425 8.5 -10.9°
Reaches altitude 10° 21:52:19 10° 331° (NNW) 2,487 7.2 -11.1°
Maximum altitude 21:58:03 76° 57° (ENE) 882 3.3 -11.4°
Enters shadow 22:02:55 15° 143° (SE) 2,162 4.7 -11.7°
